• în România
  • Lista ţărilor
  • Pe 7 zile
  • Temperatura apei
  • Hartă satelitară
  • Meteo pe hartă
  • Widget-uri
  • user-avatar
    Intrare

    Meteo pe oră la Qui Nhon

    Astăzi, 16 August, Joi

    Timp Temperatura Precipitaţii Vânt Presiune Umiditate
    00:00 +30°C° 0 mm 7 m/s 751 mmHg 69%
    01:00 +30°C° 0 mm 7 m/s 751 mmHg 67%
    02:00 +30°C° 0 mm 7 m/s 750 mmHg 67%
    03:00 +30°C° 0 mm 7 m/s 750 mmHg 68%
    04:00 +29°C° 0 mm 7 m/s 750 mmHg 69%
    05:00 +30°C° 0 mm 7 m/s 750 mmHg 68%
    06:00 +30°C° 0 mm 7 m/s 750 mmHg 68%
    07:00 +32°C° 0 mm 5 m/s 750 mmHg 64%
    08:00 +32°C° 0 mm 6 m/s 750 mmHg 62%
    09:00 +33°C° 0 mm 8 m/s 750 mmHg 59%
    10:00 +34°C° 0 mm 9 m/s 750 mmHg 57%
    11:00 +35°C° 0 mm 9 m/s 750 mmHg 53%
    12:00 +37°C° 0 mm 9 m/s 749 mmHg 49%
    13:00 +38°C° 0 mm 9 m/s 749 mmHg 46%
    14:00 +38°C° 0 mm 9 m/s 748 mmHg 47%
    15:00 +37°C° 0 mm 8 m/s 748 mmHg 49%
    16:00 +36°C° 0 mm 7 m/s 748 mmHg 50%
    17:00 +34°C° 0 mm 7 m/s 748 mmHg 57%
    18:00 +33°C° 0 mm 6 m/s 749 mmHg 63%
    19:00 +30°C° 0 mm 6 m/s 749 mmHg 69%
    20:00 +30°C° 0 mm 6 m/s 749 mmHg 69%
    21:00 +30°C° 0 mm 6 m/s 750 mmHg 70%
    22:00 +30°C° 0 mm 6 m/s 750 mmHg 70%
    23:00 +30°C° 0 mm 6 m/s 750 mmHg 70%

    Mâine, 17 August, Vineri

    Timp Temperatura Precipitaţii Vânt Presiune Umiditate
    00:00 +29°C° 0 mm 6 m/s 750 mmHg 70%
    01:00 +29°C° 0 mm 6 m/s 749 mmHg 70%
    02:00 +29°C° 0 mm 6 m/s 749 mmHg 70%
    03:00 +29°C° 0 mm 6 m/s 749 mmHg 70%
    04:00 +29°C° 0 mm 6 m/s 749 mmHg 70%
    05:00 +29°C° 0 mm 6 m/s 749 mmHg 69%
    06:00 +30°C° 0 mm 6 m/s 749 mmHg 69%
    07:00 +30°C° 0 mm 7 m/s 749 mmHg 68%
    08:00 +32°C° 0 mm 7 m/s 749 mmHg 63%
    09:00 +34°C° 0 mm 7 m/s 749 mmHg 58%
    10:00 +35°C° 0 mm 8 m/s 749 mmHg 54%
    11:00 +37°C° 0 mm 8 m/s 749 mmHg 52%
    12:00 +37°C° 0 mm 8 m/s 749 mmHg 50%
    13:00 +38°C° 0 mm 7 m/s 748 mmHg 48%
    14:00 +36°C° 0 mm 7 m/s 748 mmHg 51%
    15:00 +36°C° 0 mm 7 m/s 748 mmHg 53%
    16:00 +35°C° 0 mm 6 m/s 747 mmHg 55%
    17:00 +34°C° 0 mm 6 m/s 748 mmHg 61%
    18:00 +32°C° 0 mm 5 m/s 748 mmHg 66%
    19:00 +30°C° 0 mm 5 m/s 749 mmHg 72%
    20:00 +30°C° 0 mm 5 m/s 749 mmHg 71%
    21:00 +30°C° 0 mm 5 m/s 750 mmHg 70%
    22:00 +30°C° 0 mm 6 m/s 751 mmHg 70%
    23:00 +30°C° 0 mm 6 m/s 750 mmHg 70%

    Poimâine, 18 August, Sâmbătă

    Timp Temperatura Precipitaţii Vânt Presiune Umiditate
    00:00 +30°C° 0 mm 6 m/s 750 mmHg 70%
    01:00 +30°C° 0 mm 6 m/s 750 mmHg 70%
    02:00 +29°C° 0 mm 5 m/s 750 mmHg 70%
    03:00 +29°C° 0 mm 5 m/s 750 mmHg 70%
    04:00 +29°C° 0 mm 5 m/s 749 mmHg 70%
    05:00 +30°C° 0 mm 5 m/s 750 mmHg 69%
    06:00 +30°C° 0 mm 5 m/s 750 mmHg 69%
    07:00 +30°C° 0 mm 4 m/s 751 mmHg 68%
    08:00 +33°C° 0 mm 5 m/s 751 mmHg 62%
    09:00 +35°C° 0 mm 5 m/s 751 mmHg 56%
    10:00 +36°C° 0 mm 5 m/s 751 mmHg 50%
    11:00 +37°C° 0 mm 5 m/s 751 mmHg 46%
    12:00 +40°C° 0 mm 5 m/s 750 mmHg 43%
    13:00 +41°C° 0 mm 5 m/s 750 mmHg 40%
    14:00 +40°C° 0 mm 5 m/s 749 mmHg 41%
    15:00 +40°C° 0 mm 6 m/s 749 mmHg 42%
    16:00 +40°C° 0 mm 7 m/s 748 mmHg 43%
    17:00 +38°C° 0 mm 6 m/s 749 mmHg 50%
    18:00 +35°C° 0 mm 5 m/s 750 mmHg 56%
    19:00 +33°C° 0 mm 4 m/s 750 mmHg 63%
    20:00 +32°C° 0 mm 4 m/s 751 mmHg 65%
    21:00 +32°C° 0 mm 4 m/s 752 mmHg 67%
    22:00 +30°C° 0 mm 4 m/s 752 mmHg 70%
    23:00 +30°C° 0 mm 5 m/s 752 mmHg 70%

    19 August, Duminică

    Timp Temperatura Precipitaţii Vânt Presiune Umiditate
    00:00 +30°C° 0 mm 5 m/s 752 mmHg 70%
    01:00 +30°C° 0 mm 5 m/s 752 mmHg 71%
    02:00 +29°C° 0 mm 5 m/s 751 mmHg 71%
    03:00 +29°C° 0 mm 5 m/s 751 mmHg 71%
    04:00 +29°C° 0 mm 6 m/s 751 mmHg 71%
    05:00 +30°C° 0 mm 6 m/s 751 mmHg 70%
    06:00 +30°C° 0 mm 6 m/s 752 mmHg 69%
    07:00 +30°C° 0 mm 6 m/s 752 mmHg 68%
    08:00 +33°C° 0 mm 6 m/s 753 mmHg 63%
    09:00 +34°C° 0 mm 6 m/s 753 mmHg 58%
    10:00 +36°C° 0 mm 6 m/s 753 mmHg 53%
    11:00 +37°C° 0 mm 5 m/s 752 mmHg 50%
    12:00 +39°C° 0 mm 5 m/s 752 mmHg 47%
    13:00 +40°C° 0 mm 4 m/s 751 mmHg 43%
    14:00 +40°C° 0 mm 5 m/s 751 mmHg 43%
    15:00 +40°C° 0 mm 6 m/s 750 mmHg 43%
    16:00 +40°C° 0 mm 6 m/s 750 mmHg 43%
    17:00 +38°C° 0,1 mm 6 m/s 751 mmHg 50%
    18:00 +35°C° 0,1 mm 5 m/s 751 mmHg 56%
    19:00 +33°C° 0,1 mm 5 m/s 752 mmHg 63%
    20:00 +32°C° 0,1 mm 5 m/s 753 mmHg 66%
    21:00 +30°C° 0,1 mm 4 m/s 753 mmHg 69%
    22:00 +30°C° 0,1 mm 4 m/s 754 mmHg 72%
    23:00 +30°C° 0 mm 4 m/s 753 mmHg 73%

    20 August, Luni

    Timp Temperatura Precipitaţii Vânt Presiune Umiditate
    00:00 +29°C° 0 mm 5 m/s 753 mmHg 73%
    01:00 +29°C° 0 mm 5 m/s 752 mmHg 73%
    02:00 +29°C° 0 mm 5 m/s 752 mmHg 73%
    03:00 +29°C° 0 mm 5 m/s 752 mmHg 72%
    04:00 +29°C° 0 mm 5 m/s 752 mmHg 72%
    05:00 +30°C° 0 mm 5 m/s 752 mmHg 71%
    06:00 +30°C° 0 mm 5 m/s 753 mmHg 69%
    07:00 +30°C° 0 mm 5 m/s 753 mmHg 67%
    08:00 +33°C° 0 mm 5 m/s 753 mmHg 61%
    09:00 +35°C° 0 mm 5 m/s 753 mmHg 55%
    10:00 +37°C° 0 mm 5 m/s 753 mmHg 48%
    11:00 +39°C° 0 mm 5 m/s 753 mmHg 45%
    12:00 +40°C° 0 mm 5 m/s 752 mmHg 41%
    13:00 +41°C° 0 mm 4 m/s 751 mmHg 38%
    14:00 +41°C° 0 mm 5 m/s 751 mmHg 39%
    15:00 +41°C° 0 mm 6 m/s 751 mmHg 39%
    16:00 +41°C° 0 mm 7 m/s 750 mmHg 40%
    17:00 +39°C° 0 mm 6 m/s 751 mmHg 47%
    18:00 +35°C° 0 mm 6 m/s 751 mmHg 55%
    19:00 +33°C° 0 mm 5 m/s 752 mmHg 62%
    20:00 +32°C° 0 mm 5 m/s 752 mmHg 66%
    21:00 +32°C° 0 mm 5 m/s 753 mmHg 69%
    22:00 +30°C° 0 mm 5 m/s 753 mmHg 73%
    23:00 +30°C° 0 mm 5 m/s 753 mmHg 73%

    21 August, Marţi

    Timp Temperatura Precipitaţii Vânt Presiune Umiditate
    00:00 +29°C° 0 mm 5 m/s 752 mmHg 72%
    01:00 +29°C° 0 mm 5 m/s 751 mmHg 72%
    02:00 +29°C° 0 mm 5 m/s 751 mmHg 72%
    03:00 +29°C° 0 mm 6 m/s 751 mmHg 72%
    04:00 +29°C° 0 mm 6 m/s 751 mmHg 72%
    05:00 +30°C° 0 mm 6 m/s 751 mmHg 70%
    06:00 +30°C° 0 mm 6 m/s 752 mmHg 68%
    07:00 +32°C° 0 mm 6 m/s 752 mmHg 66%
    08:00 +33°C° 0 mm 6 m/s 752 mmHg 60%
    09:00 +35°C° 0 mm 6 m/s 752 mmHg 54%
    10:00 +38°C° 0 mm 6 m/s 752 mmHg 48%
    11:00 +39°C° 0 mm 6 m/s 751 mmHg 45%
    12:00 +40°C° 0 mm 6 m/s 750 mmHg 42%
    13:00 +41°C° 0 mm 5 m/s 750 mmHg 39%
    14:00 +41°C° 0 mm 6 m/s 749 mmHg 40%
    15:00 +40°C° 0 mm 6 m/s 749 mmHg 41%
    16:00 +40°C° 0 mm 6 m/s 749 mmHg 42%
    17:00 +38°C° 0 mm 6 m/s 749 mmHg 49%
    18:00 +35°C° 0 mm 5 m/s 750 mmHg 55%
    19:00 +33°C° 0 mm 5 m/s 751 mmHg 62%
    20:00 +32°C° 0 mm 5 m/s 751 mmHg 64%
    21:00 +32°C° 0 mm 5 m/s 751 mmHg 67%
    22:00 +30°C° 0 mm 6 m/s 752 mmHg 69%
    23:00 +30°C° 0 mm 6 m/s 751 mmHg 69%
    Arată mai mult